Year,Month,Day,Hour,Minute,Value (Times are PST for temperature in C)
2008,07,19,00,00,11.70
2008,07,19,00,01,11.70
2008,07,19,00,02,11.70
2008,07,19,00,03,11.70
2008,07,19,00,04,11.70
2008,07,19,00,05,11.70
2008,07,19,00,06,11.70
2008,07,19,00,07,11.60
2008,07,19,00,08,11.60
2008,07,19,00,09,11.60
2008,07,19,00,10,11.60
2008,07,19,00,11,11.50
2008,07,19,00,12,11.50
2008,07,19,00,13,11.50
2008,07,19,00,14,11.40
2008,07,19,00,15,11.40
2008,07,19,00,16,11.40
2008,07,19,00,17,11.40
2008,07,19,00,18,11.40
2008,07,19,00,19,11.40
2008,07,19,00,20,11.30
2008,07,19,00,21,11.30
2008,07,19,00,22,11.30
2008,07,19,00,23,11.30
2008,07,19,00,24,11.30
2008,07,19,00,25,11.30
2008,07,19,00,26,11.30
2008,07,19,00,27,11.30
2008,07,19,00,28,11.30
2008,07,19,00,29,11.30
2008,07,19,00,30,11.30
2008,07,19,00,31,11.30
2008,07,19,00,32,11.30
2008,07,19,00,33,11.20
2008,07,19,00,34,11.20
2008,07,19,00,35,11.20
2008,07,19,00,36,11.20
2008,07,19,00,37,11.20
2008,07,19,00,38,11.20
2008,07,19,00,39,11.10
2008,07,19,00,40,11.10
2008,07,19,00,41,11.10
2008,07,19,00,42,11.10
2008,07,19,00,43,11.10
2008,07,19,00,44,11.10
2008,07,19,00,45,11.00
2008,07,19,00,46,11.00
2008,07,19,00,47,11.00
2008,07,19,00,48,11.00
2008,07,19,00,49,11.00
2008,07,19,00,50,11.00
2008,07,19,00,51,11.00
2008,07,19,00,52,11.00
2008,07,19,00,53,10.90
2008,07,19,00,54,10.90
2008,07,19,00,55,10.90
2008,07,19,00,56,10.90
2008,07,19,00,57,10.90
2008,07,19,00,58,10.90
2008,07,19,00,59,10.80
2008,07,19,01,00,10.80
2008,07,19,01,01,10.80
2008,07,19,01,02,10.80
2008,07,19,01,03,10.90
2008,07,19,01,04,10.90
2008,07,19,01,05,10.90
2008,07,19,01,06,10.90
2008,07,19,01,07,10.90
2008,07,19,01,08,10.90
2008,07,19,01,09,10.90
2008,07,19,01,10,10.80
2008,07,19,01,11,10.80
2008,07,19,01,12,10.80
2008,07,19,01,13,10.80
2008,07,19,01,14,10.80
2008,07,19,01,15,10.80
2008,07,19,01,16,10.70
2008,07,19,01,17,10.70
2008,07,19,01,18,10.70
2008,07,19,01,19,10.70
2008,07,19,01,20,10.70
2008,07,19,01,21,10.70
2008,07,19,01,22,10.70
2008,07,19,01,23,10.70
2008,07,19,01,24,10.70
2008,07,19,01,25,10.70
2008,07,19,01,26,10.70
2008,07,19,01,27,10.70
2008,07,19,01,28,10.70
2008,07,19,01,29,10.80
2008,07,19,01,30,10.80
2008,07,19,01,31,10.80
2008,07,19,01,32,10.80
2008,07,19,01,33,10.80
2008,07,19,01,34,10.80
2008,07,19,01,35,10.80
2008,07,19,01,36,10.80
2008,07,19,01,37,10.70
2008,07,19,01,38,10.70
2008,07,19,01,39,10.70
2008,07,19,01,40,10.70
2008,07,19,01,41,10.70
2008,07,19,01,42,10.60
2008,07,19,01,43,10.60
2008,07,19,01,44,10.60
2008,07,19,01,45,10.60
2008,07,19,01,46,10.60
2008,07,19,01,47,10.60
2008,07,19,01,48,10.60
2008,07,19,01,49,10.60
2008,07,19,01,50,10.60
2008,07,19,01,51,10.60
2008,07,19,01,52,10.60
2008,07,19,01,53,10.60
2008,07,19,01,54,10.60
2008,07,19,01,55,10.60
2008,07,19,01,56,10.60
2008,07,19,01,57,10.60
2008,07,19,01,58,10.60
2008,07,19,01,59,10.60
2008,07,19,02,00,10.50
2008,07,19,02,01,10.50
2008,07,19,02,02,10.50
2008,07,19,02,03,10.40
2008,07,19,02,04,10.40
2008,07,19,02,05,10.40
2008,07,19,02,06,10.40
2008,07,19,02,07,10.40
2008,07,19,02,08,10.40
2008,07,19,02,09,10.40
2008,07,19,02,10,10.40
2008,07,19,02,11,10.40
2008,07,19,02,12,10.40
2008,07,19,02,13,10.40
2008,07,19,02,14,10.40
2008,07,19,02,15,10.40
2008,07,19,02,16,10.40
2008,07,19,02,17,10.40
2008,07,19,02,18,10.40
2008,07,19,02,19,10.40
2008,07,19,02,20,10.40
2008,07,19,02,21,10.40
2008,07,19,02,22,10.40
2008,07,19,02,23,10.40
2008,07,19,02,24,10.30
2008,07,19,02,25,10.30
2008,07,19,02,26,10.30
2008,07,19,02,27,10.30
2008,07,19,02,28,10.30
2008,07,19,02,29,10.30
2008,07,19,02,30,10.30
2008,07,19,02,31,10.30
2008,07,19,02,32,10.30
2008,07,19,02,33,10.30
2008,07,19,02,34,10.30
2008,07,19,02,35,10.30
2008,07,19,02,36,10.30
2008,07,19,02,37,10.20
2008,07,19,02,38,10.20
2008,07,19,02,39,10.20
2008,07,19,02,40,10.20
2008,07,19,02,41,10.20
2008,07,19,02,42,10.20
2008,07,19,02,43,10.20
2008,07,19,02,44,10.20
2008,07,19,02,45,10.20
2008,07,19,02,46,10.20
2008,07,19,02,47,10.20
2008,07,19,02,48,10.20
2008,07,19,02,49,10.20
2008,07,19,02,50,10.20
2008,07,19,02,51,10.20
2008,07,19,02,52,10.20
2008,07,19,02,53,10.20
2008,07,19,02,54,10.20
2008,07,19,02,55,10.20
2008,07,19,02,56,10.20
2008,07,19,02,57,10.20
2008,07,19,02,58,10.20
2008,07,19,02,59,10.20
2008,07,19,03,00,10.20
2008,07,19,03,01,10.20
2008,07,19,03,02,10.20
2008,07,19,03,03,10.20
2008,07,19,03,04,10.10
2008,07,19,03,05,10.10
2008,07,19,03,06,10.10
2008,07,19,03,07,10.10
2008,07,19,03,08,10.10
2008,07,19,03,09,10.10
2008,07,19,03,10,10.10
2008,07,19,03,11,10.00
2008,07,19,03,12,10.10
2008,07,19,03,13,10.10
2008,07,19,03,14,10.10
2008,07,19,03,15,10.10
2008,07,19,03,16,10.10
2008,07,19,03,17,10.10
2008,07,19,03,18,10.10
2008,07,19,03,19,10.10
2008,07,19,03,20,10.10
2008,07,19,03,21,10.10
2008,07,19,03,22,10.10
2008,07,19,03,23,10.10
2008,07,19,03,24,10.20
2008,07,19,03,25,10.20
2008,07,19,03,26,10.20
2008,07,19,03,27,10.20
2008,07,19,03,28,10.20
2008,07,19,03,29,10.20
2008,07,19,03,30,10.20
2008,07,19,03,31,10.10
2008,07,19,03,32,10.10
2008,07,19,03,33,10.10
2008,07,19,03,34,10.10
2008,07,19,03,35,10.10
2008,07,19,03,36,10.00
2008,07,19,03,37,10.10
2008,07,19,03,38,10.10
2008,07,19,03,39,10.10
2008,07,19,03,40,10.10
2008,07,19,03,41,10.10
2008,07,19,03,42,10.00
2008,07,19,03,43,10.00
2008,07,19,03,44,10.00
2008,07,19,03,45,10.00
2008,07,19,03,46,10.00
2008,07,19,03,47,10.00
2008,07,19,03,48,10.00
2008,07,19,03,49,10.00
2008,07,19,03,50,10.00
2008,07,19,03,51,10.00
2008,07,19,03,52,10.00
2008,07,19,03,53,10.00
2008,07,19,03,54,10.00
2008,07,19,03,55,10.00
2008,07,19,03,56,10.00
2008,07,19,03,57,10.10
2008,07,19,03,58,10.00
2008,07,19,03,59,10.00
2008,07,19,04,00,10.00
2008,07,19,04,01,10.00
2008,07,19,04,02,9.90
2008,07,19,04,03,9.90
2008,07,19,04,04,9.90
2008,07,19,04,05,9.90
2008,07,19,04,06,9.90
2008,07,19,04,07,9.90
2008,07,19,04,08,9.90
2008,07,19,04,09,9.90
2008,07,19,04,10,9.90
2008,07,19,04,11,10.00
2008,07,19,04,12,10.00
2008,07,19,04,13,10.00
2008,07,19,04,14,10.10
2008,07,19,04,15,10.10
2008,07,19,04,16,10.10
2008,07,19,04,17,10.10
2008,07,19,04,18,10.10
2008,07,19,04,19,10.10
2008,07,19,04,20,10.10
2008,07,19,04,21,10.10
2008,07,19,04,22,10.10
2008,07,19,04,23,10.10
2008,07,19,04,24,10.00
2008,07,19,04,25,10.00
2008,07,19,04,26,10.00
2008,07,19,04,27,10.00
2008,07,19,04,28,10.00
2008,07,19,04,29,9.90
2008,07,19,04,30,9.90
2008,07,19,04,31,9.90
2008,07,19,04,32,9.90
2008,07,19,04,33,9.90
2008,07,19,04,34,9.90
2008,07,19,04,35,9.80
2008,07,19,04,36,9.90
2008,07,19,04,37,9.90
2008,07,19,04,38,10.00
2008,07,19,04,39,9.90
2008,07,19,04,40,9.90
2008,07,19,04,41,9.90
2008,07,19,04,42,9.90
2008,07,19,04,43,9.90
2008,07,19,04,44,9.90
2008,07,19,04,45,9.90
2008,07,19,04,46,9.80
2008,07,19,04,47,9.80
2008,07,19,04,48,9.80
2008,07,19,04,49,9.80
2008,07,19,04,50,9.80
2008,07,19,04,51,9.80
2008,07,19,04,52,9.80
2008,07,19,04,53,9.80
2008,07,19,04,54,9.80
2008,07,19,04,55,9.80
2008,07,19,04,56,9.80
2008,07,19,04,57,9.80
2008,07,19,04,58,9.80
2008,07,19,04,59,9.80
2008,07,19,05,00,9.80
2008,07,19,05,01,9.70
2008,07,19,05,02,9.70
2008,07,19,05,03,9.70
2008,07,19,05,04,9.80
2008,07,19,05,05,9.80
2008,07,19,05,06,9.80
2008,07,19,05,07,9.90
2008,07,19,05,08,9.90
2008,07,19,05,09,9.90
2008,07,19,05,10,9.90
2008,07,19,05,11,9.90
2008,07,19,05,12,9.90
2008,07,19,05,13,9.90
2008,07,19,05,14,9.90
2008,07,19,05,15,9.90
2008,07,19,05,16,9.90
2008,07,19,05,17,9.90
2008,07,19,05,18,9.90
2008,07,19,05,19,9.80
2008,07,19,05,20,9.80
2008,07,19,05,21,9.80
2008,07,19,05,22,9.80
2008,07,19,05,23,9.80
2008,07,19,05,24,9.80
2008,07,19,05,25,9.90
2008,07,19,05,26,9.90
2008,07,19,05,27,9.90
2008,07,19,05,28,9.90
2008,07,19,05,29,9.90
2008,07,19,05,30,9.90
2008,07,19,05,31,9.90
2008,07,19,05,32,9.90
2008,07,19,05,33,9.90
2008,07,19,05,34,9.90
2008,07,19,05,35,9.90
2008,07,19,05,36,9.90
2008,07,19,05,37,9.80
2008,07,19,05,38,9.80
2008,07,19,05,39,9.80
2008,07,19,05,40,9.80
2008,07,19,05,41,9.80
2008,07,19,05,42,9.80
2008,07,19,05,43,9.80
2008,07,19,05,44,9.90
2008,07,19,05,45,9.90
2008,07,19,05,46,9.90
2008,07,19,05,47,9.90
2008,07,19,05,48,9.80
2008,07,19,05,49,9.80
2008,07,19,05,50,9.80
2008,07,19,05,51,9.80
2008,07,19,05,52,9.80
2008,07,19,05,53,9.80
2008,07,19,05,54,9.80
2008,07,19,05,55,9.80
2008,07,19,05,56,9.70
2008,07,19,05,57,9.70
2008,07,19,05,58,9.70
2008,07,19,05,59,9.80
2008,07,19,06,00,9.80
2008,07,19,06,01,9.80
2008,07,19,06,02,9.80
2008,07,19,06,03,9.80
2008,07,19,06,04,9.80
2008,07,19,06,05,9.80
2008,07,19,06,06,9.80
2008,07,19,06,07,9.80
2008,07,19,06,08,9.90
2008,07,19,06,09,9.90
2008,07,19,06,10,9.90
2008,07,19,06,11,10.00
2008,07,19,06,12,10.00
2008,07,19,06,13,10.00
2008,07,19,06,14,10.00
2008,07,19,06,15,9.90
2008,07,19,06,16,9.90
2008,07,19,06,17,9.90
2008,07,19,06,18,9.90
2008,07,19,06,19,9.90
2008,07,19,06,20,9.90
2008,07,19,06,21,9.90
2008,07,19,06,22,9.90
2008,07,19,06,23,9.90
2008,07,19,06,24,9.90
2008,07,19,06,25,10.00
2008,07,19,06,26,10.10
2008,07,19,06,27,10.10
2008,07,19,06,28,10.10
2008,07,19,06,29,10.20
2008,07,19,06,30,10.20
2008,07,19,06,31,10.20
2008,07,19,06,32,10.20
2008,07,19,06,33,10.20
2008,07,19,06,34,10.20
2008,07,19,06,35,10.20
2008,07,19,06,36,10.30
2008,07,19,06,37,10.30
2008,07,19,06,38,10.40
2008,07,19,06,39,10.40
2008,07,19,06,40,10.40
2008,07,19,06,41,10.50
2008,07,19,06,42,10.60
2008,07,19,06,43,10.60
2008,07,19,06,44,10.70
2008,07,19,06,45,10.70
2008,07,19,06,46,10.70
2008,07,19,06,47,10.80
2008,07,19,06,48,10.80
2008,07,19,06,49,10.80
2008,07,19,06,50,10.80
2008,07,19,06,51,10.90
2008,07,19,06,52,11.00
2008,07,19,06,53,11.00
2008,07,19,06,54,11.10
2008,07,19,06,55,11.10
2008,07,19,06,56,11.10
2008,07,19,06,57,11.20
2008,07,19,06,58,11.20
2008,07,19,06,59,11.30
2008,07,19,07,00,11.40
2008,07,19,07,01,11.50
2008,07,19,07,02,11.50
2008,07,19,07,03,11.60
2008,07,19,07,04,11.70
2008,07,19,07,05,11.70
2008,07,19,07,06,11.70
2008,07,19,07,07,11.80
2008,07,19,07,08,11.90
2008,07,19,07,09,11.90
2008,07,19,07,10,11.90
2008,07,19,07,11,12.00
2008,07,19,07,12,12.10
2008,07,19,07,13,12.10
2008,07,19,07,14,12.20
2008,07,19,07,15,12.30
2008,07,19,07,16,12.40
2008,07,19,07,17,12.50
2008,07,19,07,18,12.60
2008,07,19,07,19,12.60
2008,07,19,07,20,12.70
2008,07,19,07,21,12.80
2008,07,19,07,22,12.90
2008,07,19,07,23,12.90
2008,07,19,07,24,13.00
2008,07,19,07,25,13.10
2008,07,19,07,26,13.20
2008,07,19,07,27,13.30
2008,07,19,07,28,13.40
2008,07,19,07,29,13.40
2008,07,19,07,30,13.60
2008,07,19,07,31,13.70
2008,07,19,07,32,13.80
2008,07,19,07,33,13.80
2008,07,19,07,34,13.80
2008,07,19,07,35,13.70
2008,07,19,07,36,13.80
2008,07,19,07,37,13.80
2008,07,19,07,38,13.80
2008,07,19,07,39,13.80
2008,07,19,07,40,13.90
2008,07,19,07,41,14.00
2008,07,19,07,42,14.10
2008,07,19,07,43,14.10
2008,07,19,07,44,14.20
2008,07,19,07,45,14.20
2008,07,19,07,46,14.20
2008,07,19,07,47,14.10
2008,07,19,07,48,14.10
2008,07,19,07,49,14.10
2008,07,19,07,50,14.10
2008,07,19,07,51,14.10
2008,07,19,07,52,14.10
2008,07,19,07,53,14.20
2008,07,19,07,54,14.20
2008,07,19,07,55,14.10
2008,07,19,07,56,14.10
2008,07,19,07,57,14.20
2008,07,19,07,58,14.20
2008,07,19,07,59,14.30
2008,07,19,08,00,14.40
2008,07,19,08,01,14.50
2008,07,19,08,02,14.50
2008,07,19,08,03,14.60
2008,07,19,08,04,14.60
2008,07,19,08,05,14.60
2008,07,19,08,06,14.70
2008,07,19,08,07,14.70
2008,07,19,08,08,14.80
2008,07,19,08,09,14.90
2008,07,19,08,10,14.90
2008,07,19,08,11,15.00
2008,07,19,08,12,15.00
2008,07,19,08,13,15.00
2008,07,19,08,14,15.00
2008,07,19,08,15,15.00
2008,07,19,08,16,15.00
2008,07,19,08,17,15.00
2008,07,19,08,18,15.00
2008,07,19,08,19,15.00
2008,07,19,08,20,15.00
2008,07,19,08,21,15.00
2008,07,19,08,22,15.00
2008,07,19,08,23,15.00
2008,07,19,08,24,15.00
2008,07,19,08,25,15.00
2008,07,19,08,26,15.10
2008,07,19,08,27,15.20
2008,07,19,08,28,15.30
2008,07,19,08,29,15.40
2008,07,19,08,30,15.50
2008,07,19,08,31,15.60
2008,07,19,08,32,15.80
2008,07,19,08,33,15.90
2008,07,19,08,34,16.00
2008,07,19,08,35,16.10
2008,07,19,08,36,16.20
2008,07,19,08,37,16.30
2008,07,19,08,38,16.40
2008,07,19,08,39,16.40
2008,07,19,08,40,16.40
2008,07,19,08,41,16.50
2008,07,19,08,42,16.50
2008,07,19,08,43,16.60
2008,07,19,08,44,16.60
2008,07,19,08,45,16.60
2008,07,19,08,46,16.60
2008,07,19,08,47,16.60
2008,07,19,08,48,16.60
2008,07,19,08,49,16.70
2008,07,19,08,50,16.80
2008,07,19,08,51,16.90
2008,07,19,08,52,17.10
2008,07,19,08,53,17.20
2008,07,19,08,54,17.30
2008,07,19,08,55,17.40
2008,07,19,08,56,17.50
2008,07,19,08,57,17.70
2008,07,19,08,58,17.70
2008,07,19,08,59,17.70
2008,07,19,09,00,17.80
2008,07,19,09,01,17.90
2008,07,19,09,02,17.70
2008,07,19,09,03,17.50
2008,07,19,09,04,17.30
2008,07,19,09,05,17.20
2008,07,19,09,06,17.10
2008,07,19,09,07,17.10
2008,07,19,09,08,17.00
2008,07,19,09,09,16.80
2008,07,19,09,10,16.70
2008,07,19,09,11,16.60
2008,07,19,09,12,16.50
2008,07,19,09,13,16.40
2008,07,19,09,14,16.30
2008,07,19,09,15,16.30
2008,07,19,09,16,16.40
2008,07,19,09,17,16.40
2008,07,19,09,18,16.40
2008,07,19,09,19,16.40
2008,07,19,09,20,16.30
2008,07,19,09,21,16.30
2008,07,19,09,22,16.30
2008,07,19,09,23,16.20
2008,07,19,09,24,16.20
2008,07,19,09,25,16.10
2008,07,19,09,26,16.10
2008,07,19,09,27,16.10
2008,07,19,09,28,16.10
2008,07,19,09,29,16.00
2008,07,19,09,30,15.90
2008,07,19,09,31,15.80
2008,07,19,09,32,15.90
2008,07,19,09,33,16.10
2008,07,19,09,34,16.20
2008,07,19,09,35,16.20
2008,07,19,09,36,16.20
2008,07,19,09,37,16.30
2008,07,19,09,38,16.30
2008,07,19,09,39,16.40
2008,07,19,09,40,16.50
2008,07,19,09,41,16.60
2008,07,19,09,42,16.70
2008,07,19,09,43,16.80
2008,07,19,09,44,16.90
2008,07,19,09,45,16.90
2008,07,19,09,46,16.70
2008,07,19,09,47,16.70
2008,07,19,09,48,16.70
2008,07,19,09,49,16.60
2008,07,19,09,50,16.60
2008,07,19,09,51,16.60
2008,07,19,09,52,16.60
2008,07,19,09,53,16.70
2008,07,19,09,54,16.60
2008,07,19,09,55,16.60
2008,07,19,09,56,16.50
2008,07,19,09,57,16.50
2008,07,19,09,58,16.50
2008,07,19,09,59,16.60
2008,07,19,10,00,16.90
2008,07,19,10,01,17.10
2008,07,19,10,02,17.30
2008,07,19,10,03,17.40
2008,07,19,10,04,17.50
2008,07,19,10,05,17.70
2008,07,19,10,06,17.70
2008,07,19,10,07,17.70
2008,07,19,10,08,17.80
2008,07,19,10,09,17.70
2008,07,19,10,10,17.60
2008,07,19,10,11,17.60
2008,07,19,10,12,17.60
2008,07,19,10,13,17.60
2008,07,19,10,14,17.70
2008,07,19,10,15,17.80
2008,07,19,10,16,17.70
2008,07,19,10,17,17.70
2008,07,19,10,18,17.70
2008,07,19,10,19,17.60
2008,07,19,10,20,17.70
2008,07,19,10,21,17.70
2008,07,19,10,22,17.60
2008,07,19,10,23,17.50
2008,07,19,10,24,17.40
2008,07,19,10,25,17.40
2008,07,19,10,26,17.40
2008,07,19,10,27,17.50
2008,07,19,10,28,17.50
2008,07,19,10,29,17.50
2008,07,19,10,30,17.50
2008,07,19,10,31,17.40
2008,07,19,10,32,17.40
2008,07,19,10,33,17.30
2008,07,19,10,34,17.20
2008,07,19,10,35,17.10
2008,07,19,10,36,17.00
2008,07,19,10,37,17.10
2008,07,19,10,38,17.20
2008,07,19,10,39,17.30
2008,07,19,10,40,17.20
2008,07,19,10,41,17.20
2008,07,19,10,42,17.20
2008,07,19,10,43,17.20
2008,07,19,10,44,17.20
2008,07,19,10,45,17.10
2008,07,19,10,46,17.10
2008,07,19,10,47,17.10
2008,07,19,10,48,17.00
2008,07,19,10,49,17.00
2008,07,19,10,50,17.00
2008,07,19,10,51,17.00
2008,07,19,10,52,17.10
2008,07,19,10,53,17.20
2008,07,19,10,54,17.30
2008,07,19,10,55,17.50
2008,07,19,10,56,17.60
2008,07,19,10,57,17.80
2008,07,19,10,58,17.90
2008,07,19,10,59,18.00
2008,07,19,11,00,18.10
2008,07,19,11,01,18.10
2008,07,19,11,02,18.20
2008,07,19,11,03,18.20
2008,07,19,11,04,18.10
2008,07,19,11,05,18.00
2008,07,19,11,06,17.90
2008,07,19,11,07,17.70
2008,07,19,11,08,17.70
2008,07,19,11,09,17.70
2008,07,19,11,10,17.70
2008,07,19,11,11,17.60
2008,07,19,11,12,17.50
2008,07,19,11,13,17.40
2008,07,19,11,14,17.50
2008,07,19,11,15,17.60
2008,07,19,11,16,17.70
2008,07,19,11,17,17.80
2008,07,19,11,18,17.90
2008,07,19,11,19,18.00
2008,07,19,11,20,18.00
2008,07,19,11,21,18.00
2008,07,19,11,22,18.10
2008,07,19,11,23,18.00
2008,07,19,11,24,18.10
2008,07,19,11,25,18.00
2008,07,19,11,26,17.80
2008,07,19,11,27,17.70
2008,07,19,11,28,17.60
2008,07,19,11,29,17.50
2008,07,19,11,30,17.40
2008,07,19,11,31,17.40
2008,07,19,11,32,17.40
2008,07,19,11,33,17.40
2008,07,19,11,34,17.40
2008,07,19,11,35,17.40
2008,07,19,11,36,17.40
2008,07,19,11,37,17.40
2008,07,19,11,38,17.40
2008,07,19,11,39,17.40
2008,07,19,11,40,17.40
2008,07,19,11,41,17.40
2008,07,19,11,42,17.50
2008,07,19,11,43,17.60
2008,07,19,11,44,17.60
2008,07,19,11,45,17.70
2008,07,19,11,46,17.70
2008,07,19,11,47,17.70
2008,07,19,11,48,17.50
2008,07,19,11,49,17.50
2008,07,19,11,50,17.50
2008,07,19,11,51,17.40
2008,07,19,11,52,17.40
2008,07,19,11,53,17.30
2008,07,19,11,54,17.30
2008,07,19,11,55,17.40
2008,07,19,11,56,17.40
2008,07,19,11,57,17.40
2008,07,19,11,58,17.50
2008,07,19,11,59,17.50
2008,07,19,12,00,17.50
2008,07,19,12,01,17.40
2008,07,19,12,02,17.40
2008,07,19,12,03,17.50
2008,07,19,12,04,17.50
2008,07,19,12,05,17.60
2008,07,19,12,06,17.80
2008,07,19,12,07,17.90
2008,07,19,12,08,18.00
2008,07,19,12,09,18.10
2008,07,19,12,10,18.00
2008,07,19,12,11,18.00
2008,07,19,12,12,17.90
2008,07,19,12,13,18.00
2008,07,19,12,14,18.10
2008,07,19,12,15,18.20
2008,07,19,12,16,18.20
2008,07,19,12,17,18.30
2008,07,19,12,18,18.30
2008,07,19,12,19,18.40
2008,07,19,12,20,18.50
2008,07,19,12,21,18.50
2008,07,19,12,22,18.60
2008,07,19,12,23,18.50
2008,07,19,12,24,18.50
2008,07,19,12,25,18.60
2008,07,19,12,26,18.60
2008,07,19,12,27,18.70
2008,07,19,12,28,18.70
2008,07,19,12,29,18.60
2008,07,19,12,30,18.50
2008,07,19,12,31,18.50
2008,07,19,12,32,18.50
2008,07,19,12,33,18.60
2008,07,19,12,34,18.60
2008,07,19,12,35,18.50
2008,07,19,12,36,18.50
2008,07,19,12,37,18.50
2008,07,19,12,38,18.40
2008,07,19,12,39,18.40
2008,07,19,12,40,18.40
2008,07,19,12,41,18.40
2008,07,19,12,42,18.40
2008,07,19,12,43,18.50
2008,07,19,12,44,18.60
2008,07,19,12,45,18.70
2008,07,19,12,46,18.90
2008,07,19,12,47,19.00
2008,07,19,12,48,19.00
2008,07,19,12,49,19.10
2008,07,19,12,50,19.20
2008,07,19,12,51,19.30
2008,07,19,12,52,19.30
2008,07,19,12,53,19.20
2008,07,19,12,54,19.20
2008,07,19,12,55,19.20
2008,07,19,12,56,19.10
2008,07,19,12,57,19.00
2008,07,19,12,58,18.90
2008,07,19,12,59,18.80
2008,07,19,13,00,18.80
2008,07,19,13,01,18.80
2008,07,19,13,02,18.80
2008,07,19,13,03,18.90
2008,07,19,13,04,19.00
2008,07,19,13,05,19.20
2008,07,19,13,06,19.30
2008,07,19,13,07,19.40
2008,07,19,13,08,19.50
2008,07,19,13,09,19.50
2008,07,19,13,10,19.50
2008,07,19,13,11,19.50
2008,07,19,13,12,19.60
2008,07,19,13,13,19.70
2008,07,19,13,14,19.60
2008,07,19,13,15,19.50
2008,07,19,13,16,19.40
2008,07,19,13,17,19.40
2008,07,19,13,18,19.30
2008,07,19,13,19,19.20
2008,07,19,13,20,19.00
2008,07,19,13,21,18.90
2008,07,19,13,22,18.80
2008,07,19,13,23,18.70
2008,07,19,13,24,18.70
2008,07,19,13,25,18.70
2008,07,19,13,26,18.70
2008,07,19,13,27,18.70
2008,07,19,13,28,18.80
2008,07,19,13,29,18.80
2008,07,19,13,30,18.80
2008,07,19,13,31,18.80
2008,07,19,13,32,18.90
2008,07,19,13,33,18.90
2008,07,19,13,34,18.90
2008,07,19,13,35,19.00
2008,07,19,13,36,19.00
2008,07,19,13,37,19.10
2008,07,19,13,38,19.20
2008,07,19,13,39,19.30
2008,07,19,13,40,19.30
2008,07,19,13,41,19.20
2008,07,19,13,42,19.10
2008,07,19,13,43,19.10
2008,07,19,13,44,19.10
2008,07,19,13,45,19.00
2008,07,19,13,46,18.90
2008,07,19,13,47,19.00
2008,07,19,13,48,18.90
2008,07,19,13,49,18.90
2008,07,19,13,50,19.00
2008,07,19,13,51,19.10
2008,07,19,13,52,19.10
2008,07,19,13,53,19.20
2008,07,19,13,54,19.30
2008,07,19,13,55,19.10
2008,07,19,13,56,19.10
2008,07,19,13,57,19.10
2008,07,19,13,58,19.20
2008,07,19,13,59,19.30
2008,07,19,14,00,19.50
2008,07,19,14,01,19.60
2008,07,19,14,02,19.60
2008,07,19,14,03,19.70
2008,07,19,14,04,19.70
2008,07,19,14,05,19.70
2008,07,19,14,06,19.70
2008,07,19,14,07,19.80
2008,07,19,14,08,19.80
2008,07,19,14,09,19.90
2008,07,19,14,10,20.00
2008,07,19,14,11,20.00
2008,07,19,14,12,20.10
2008,07,19,14,13,20.10
2008,07,19,14,14,20.10
2008,07,19,14,15,20.10
2008,07,19,14,16,20.00
2008,07,19,14,17,20.00
2008,07,19,14,18,19.90
2008,07,19,14,19,20.00
2008,07,19,14,20,19.90
2008,07,19,14,21,20.00
2008,07,19,14,22,20.00
2008,07,19,14,23,20.10
2008,07,19,14,24,20.00
2008,07,19,14,25,20.00
2008,07,19,14,26,19.80
2008,07,19,14,27,19.80
2008,07,19,14,28,19.80
2008,07,19,14,29,19.60
2008,07,19,14,30,19.60
2008,07,19,14,31,19.50
2008,07,19,14,32,19.40
2008,07,19,14,33,19.40
2008,07,19,14,34,19.50
2008,07,19,14,35,19.60
2008,07,19,14,36,19.60
2008,07,19,14,37,19.60
2008,07,19,14,38,19.70
2008,07,19,14,39,19.70
2008,07,19,14,40,19.70
2008,07,19,14,41,19.70
2008,07,19,14,42,19.70
2008,07,19,14,43,19.60
2008,07,19,14,44,19.60
2008,07,19,14,45,19.60
2008,07,19,14,46,19.50
2008,07,19,14,47,19.50
2008,07,19,14,48,19.40
2008,07,19,14,49,19.30
2008,07,19,14,50,19.20
2008,07,19,14,51,19.10
2008,07,19,14,52,19.10
2008,07,19,14,53,19.20
2008,07,19,14,54,19.30
2008,07,19,14,55,19.40
2008,07,19,14,56,19.40
2008,07,19,14,57,19.40
2008,07,19,14,58,19.40
2008,07,19,14,59,19.30
2008,07,19,15,00,19.30
2008,07,19,15,01,19.40
2008,07,19,15,02,19.50
2008,07,19,15,03,19.60
2008,07,19,15,04,19.60
2008,07,19,15,05,19.50
2008,07,19,15,06,19.50
2008,07,19,15,07,19.50
2008,07,19,15,08,19.50
2008,07,19,15,09,19.50
2008,07,19,15,10,19.50
2008,07,19,15,11,19.60
2008,07,19,15,12,19.70
2008,07,19,15,13,19.80
2008,07,19,15,14,19.90
2008,07,19,15,15,20.00
2008,07,19,15,16,20.00
2008,07,19,15,17,20.10
2008,07,19,15,18,20.00
2008,07,19,15,19,20.00
2008,07,19,15,20,20.00
2008,07,19,15,21,20.00
2008,07,19,15,22,19.90
2008,07,19,15,23,19.90
2008,07,19,15,24,19.90
2008,07,19,15,25,20.00
2008,07,19,15,26,20.00
2008,07,19,15,27,20.10
2008,07,19,15,28,20.20
2008,07,19,15,29,20.30
2008,07,19,15,30,20.50
2008,07,19,15,31,20.50
2008,07,19,15,32,20.40
2008,07,19,15,33,20.40
2008,07,19,15,34,20.40
2008,07,19,15,35,20.40
2008,07,19,15,36,20.40
2008,07,19,15,37,20.50
2008,07,19,15,38,20.50
2008,07,19,15,39,20.60
2008,07,19,15,40,20.60
2008,07,19,15,41,20.60
2008,07,19,15,42,20.60
2008,07,19,15,43,20.60
2008,07,19,15,44,20.50
2008,07,19,15,45,20.40
2008,07,19,15,46,20.40
2008,07,19,15,47,20.40
2008,07,19,15,48,20.40
2008,07,19,15,49,20.30
2008,07,19,15,50,20.30
2008,07,19,15,51,20.30
2008,07,19,15,52,20.30
2008,07,19,15,53,20.30
2008,07,19,15,54,20.30
2008,07,19,15,55,20.30
2008,07,19,15,56,20.30
2008,07,19,15,57,20.30
2008,07,19,15,58,20.30
2008,07,19,15,59,20.30
2008,07,19,16,00,20.40
2008,07,19,16,01,20.40
2008,07,19,16,02,20.40
2008,07,19,16,03,20.40
2008,07,19,16,04,20.40
2008,07,19,16,05,20.40
2008,07,19,16,06,20.50
2008,07,19,16,07,20.50
2008,07,19,16,08,20.50
2008,07,19,16,09,20.50
2008,07,19,16,10,20.50
2008,07,19,16,11,20.40
2008,07,19,16,12,20.40
2008,07,19,16,13,20.40
2008,07,19,16,14,20.40
2008,07,19,16,15,20.50
2008,07,19,16,16,20.50
2008,07,19,16,17,20.50
2008,07,19,16,18,20.50
2008,07,19,16,19,20.60
2008,07,19,16,20,20.60
2008,07,19,16,21,20.50
2008,07,19,16,22,20.40
2008,07,19,16,23,20.40
2008,07,19,16,24,20.40
2008,07,19,16,25,20.40
2008,07,19,16,26,20.40
2008,07,19,16,27,20.40
2008,07,19,16,28,20.40
2008,07,19,16,29,20.30
2008,07,19,16,30,20.40
2008,07,19,16,31,20.30
2008,07,19,16,32,20.20
2008,07,19,16,33,20.20
2008,07,19,16,34,20.10
2008,07,19,16,35,20.10
2008,07,19,16,36,20.10
2008,07,19,16,37,20.10
2008,07,19,16,38,20.10
2008,07,19,16,39,20.00
2008,07,19,16,40,20.00
2008,07,19,16,41,20.00
2008,07,19,16,42,20.00
2008,07,19,16,43,20.10
2008,07,19,16,44,20.10
2008,07,19,16,45,20.20
2008,07,19,16,46,20.20
2008,07,19,16,47,20.20
2008,07,19,16,48,20.20
2008,07,19,16,49,20.20
2008,07,19,16,50,20.20
2008,07,19,16,51,20.20
2008,07,19,16,52,20.30
2008,07,19,16,53,20.30
2008,07,19,16,54,20.30
2008,07,19,16,55,20.30
2008,07,19,16,56,20.20
2008,07,19,16,57,20.20
2008,07,19,16,58,20.20
2008,07,19,16,59,20.30
2008,07,19,17,00,20.30
2008,07,19,17,01,20.30
2008,07,19,17,02,20.40
2008,07,19,17,03,20.40
2008,07,19,17,04,20.50
2008,07,19,17,05,20.60
2008,07,19,17,06,20.60
2008,07,19,17,07,20.50
2008,07,19,17,08,20.50
2008,07,19,17,09,20.60
2008,07,19,17,10,20.60
2008,07,19,17,11,20.60
2008,07,19,17,12,20.60
2008,07,19,17,13,20.60
2008,07,19,17,14,20.60
2008,07,19,17,15,20.60
2008,07,19,17,16,20.60
2008,07,19,17,17,20.50
2008,07,19,17,18,20.50
2008,07,19,17,19,20.50
2008,07,19,17,20,20.60
2008,07,19,17,21,20.60
2008,07,19,17,22,20.60
2008,07,19,17,23,20.70
2008,07,19,17,24,20.70